sat.trackr.live / text

‹ back to catalog

STARLINK-32269

NORAD 60377 · 2024-138Y

PAYLOAD ACTIVE UNKNOWN

§ Identity

Operator
Country
US
Launch date
2024-08-04
Launch site
AFWTR
Launch vehicle
Mass (kg)
RCS (m²)

Purposes: comms

External: N2YO · Heavens-Above · Gunter

§ Orbital elements

Epoch: 2026-09-21T19:59:59.846784Z

Period
94.01 min
Inclination
53.1600°
Eccentricity
0.0001175
Mean motion
15.31743813 rev/d
Perigee alt
469.8 km
Apogee alt
471.4 km
Semi-major
6,848.7 km
B*
-2.6016e-4
RAAN
117.4271°
Arg perigee
81.6220°
Mean anomaly
278.4915°
Rev number
12,067

§ Raw data

STARLINK-322691 60377U 24138Y   26264.83333156 -.00008440  00000+0 -26016-3 0  99982 60377  53.1600 117.4271 0001175  81.6220 278.4915 15.31743813120674

JSON: /api/v1/satellites/60377 · /tle

For live sub-satellite position, see the globe view (requires WebGL).

§ Visibility from observer

Set your observer location to see the next 7 days of passes ≥ 10°. The values pass through the URL so the page stays shareable.

No JS? Fill the form by hand. The geolocation button needs JavaScript.